Flag for U.S.A. Weather past 2 weeks in Escondido, California, U.S.A.

Now
75 °F

Sunny.


Feels Like: 77 °F
Forecast: 66 / 85 °F
Wind: 8 mph from West

Location: Ramona Airport

Current Time: Aug 30, 2015 at 7:55:41 PM

Latest Report: Aug 30, 2015 at 6:53 PM


Visibility: 10 mi

Pressure: 29.83 "Hg

Humidity: 64%

Dew point: 62 °F

Location of EscondidoLocation

Historic Weather in Escondido — Graph

°F

Escondido temperature yesterday

Maximum temperature yesterday: 97 °F (at 11:53 AM)
Minimum temperature yesterday: 64 °F (at 4:53 AM)
Average temperature yesterday: 81 °F

Past Weeks' High & Low Weather Summary

 TemperatureHumidityPressure
High102 °F (Aug 16, 11:53 AM)100% (Aug 23, 6:53 AM)30.01 "Hg (Aug 23, 6:53 AM)
Low55 °F (Aug 19, 4:53 AM)10% (Aug 16, 1:53 PM)29.80 "Hg (Aug 16, 3:53 PM)
Average76 °F58%29.89 "Hg
* Reported Aug 15 6:53 PM — Aug 30 6:53 PM, Escondido, Weather by CustomWeather, © 2015

Note: Actual official high and low records may vary slightly from our data, if they occured in-between our weather recording intervals... More about our weather records

Advertising

Escondido weather history for previous 24 hours

 ConditionsComfort  
Time TempWeatherWind HumidityBarometerVisibility
6:53 PM
Sun, Aug 30
75 °FSunny.8 mph64%29.83 "Hg10 mi
5:53 PM79 °FSunny.10 mph54%29.83 "Hg10 mi
4:53 PM87 °FSunny.10 mph37%29.83 "Hg10 mi
3:53 PM89 °FSunny.13 mph32%29.84 "Hg10 mi
2:53 PM91 °FSunny.9 mph32%29.86 "Hg10 mi
1:53 PM92 °FSunny.14 mph36%29.87 "Hg10 mi
12:53 PM91 °FSunny.10 mph33%29.88 "Hg10 mi
11:53 AM91 °FSunny.9 mph34%29.90 "Hg10 mi
10:53 AM90 °FSunny.10 mph37%29.90 "Hg10 mi
9:53 AM85 °FSunny.10 mph42%29.90 "Hg10 mi
8:53 AM81 °FSunny.No wind41%29.89 "Hg10 mi
7:53 AM74 °FSunny.No wind50%29.90 "Hg10 mi
6:53 AM63 °FClear.No wind65%29.90 "Hg10 mi
5:53 AM62 °FClear.No wind67%29.87 "Hg10 mi
4:53 AM62 °FClear.3 mph62%29.86 "Hg10 mi
3:53 AM63 °FClear.No wind65%29.86 "Hg10 mi
2:53 AM64 °FClear.No wind63%29.86 "Hg10 mi
1:53 AM66 °FClear.No wind61%29.86 "Hg10 mi
12:53 AM70 °FClear.3 mph57%29.86 "Hg10 mi
11:53 PM
Sat, Aug 29
68 °FClear.3 mph59%29.86 "Hg10 mi
10:53 PM71 °FClear.No wind55%29.86 "Hg10 mi
9:53 PM75 °FClear.No wind50%29.87 "Hg10 mi
8:53 PM77 °FClear.No wind48%29.86 "Hg10 mi
7:53 PM78 °FSunny.6 mph48%29.85 "Hg10 mi
Weather by CustomWeather, © 2015

See weather overviewHow to use our weather pages